• In Moldova, Republic
  • List of Countries
  • For 7 days
  • Water Temperature
  • Satellite Maps
  • Weather Map
  • Weather Widgets
  • user-avatar
    Login

    Hourly Weather Oran

    Today, 29 April, Saturday

    Time Temperature Precipitation Wind Pressure Humidity
    00:00 +16°C° 0 mm 3 mps 750 mmHg 93%
    01:00 +14°C° 0 mm 3 mps 749 mmHg 94%
    02:00 +14°C° 0 mm 3 mps 749 mmHg 94%
    03:00 +14°C° 0 mm 2 mps 749 mmHg 95%
    04:00 +15°C° 0 mm 2 mps 749 mmHg 95%
    05:00 +15°C° 0 mm 2 mps 749 mmHg 94%
    06:00 +15°C° 0 mm 2 mps 749 mmHg 94%
    07:00 +17°C° 0 mm 2 mps 750 mmHg 83%
    08:00 +19°C° 0 mm 2 mps 750 mmHg 73%
    09:00 +21°C° 0 mm 2 mps 750 mmHg 62%
    10:00 +24°C° 0 mm 2 mps 750 mmHg 57%
    11:00 +25°C° 0 mm 3 mps 750 mmHg 51%
    12:00 +26°C° 0 mm 4 mps 750 mmHg 46%
    13:00 +26°C° 0 mm 4 mps 749 mmHg 45%
    14:00 +27°C° 0 mm 4 mps 749 mmHg 44%
    15:00 +27°C° 0 mm 4 mps 749 mmHg 44%
    16:00 +25°C° 0 mm 4 mps 749 mmHg 48%
    17:00 +24°C° 0 mm 3 mps 749 mmHg 53%
    18:00 +22°C° 0 mm 3 mps 748 mmHg 58%
    19:00 +20°C° 0.1 mm 3 mps 749 mmHg 65%
    20:00 +19°C° 0.1 mm 2 mps 749 mmHg 72%
    21:00 +18°C° 0.1 mm 1 mps 750 mmHg 79%
    22:00 +18°C° 0 mm 1 mps 750 mmHg 78%
    23:00 +18°C° 0 mm 1 mps 750 mmHg 78%

    Tomorrow, 30 April, Sunday

    Time Temperature Precipitation Wind Pressure Humidity
    00:00 +18°C° 0 mm 1 mps 750 mmHg 78%
    01:00 +18°C° 0 mm 1 mps 750 mmHg 82%
    02:00 +16°C° 0 mm 1 mps 750 mmHg 85%
    03:00 +15°C° 0 mm 1 mps 749 mmHg 89%
    04:00 +16°C° 0 mm 1 mps 750 mmHg 87%
    05:00 +16°C° 0 mm 2 mps 750 mmHg 86%
    06:00 +17°C° 0 mm 2 mps 750 mmHg 85%
    07:00 +18°C° 0 mm 2 mps 750 mmHg 76%
    08:00 +20°C° 0 mm 3 mps 751 mmHg 67%
    09:00 +22°C° 0 mm 3 mps 751 mmHg 59%
    10:00 +22°C° 0 mm 4 mps 751 mmHg 57%
    11:00 +23°C° 0 mm 5 mps 751 mmHg 56%
    12:00 +24°C° 0 mm 6 mps 751 mmHg 55%
    13:00 +23°C° 0 mm 7 mps 751 mmHg 55%
    14:00 +23°C° 0 mm 7 mps 750 mmHg 56%
    15:00 +23°C° 0 mm 7 mps 750 mmHg 56%
    16:00 +22°C° 0 mm 7 mps 750 mmHg 59%
    17:00 +21°C° 0 mm 7 mps 750 mmHg 62%
    18:00 +20°C° 0 mm 7 mps 750 mmHg 65%
    19:00 +17°C° 0 mm 7 mps 751 mmHg 70%
    20:00 +16°C° 0 mm 6 mps 752 mmHg 76%
    21:00 +15°C° 0 mm 6 mps 752 mmHg 81%
    22:00 +15°C° 0 mm 6 mps 752 mmHg 82%
    23:00 +15°C° 0 mm 6 mps 752 mmHg 82%

    Day after tomorrow, 1 May, Monday

    Time Temperature Precipitation Wind Pressure Humidity
    00:00 +15°C° 0 mm 6 mps 753 mmHg 83%
    01:00 +14°C° 0 mm 5 mps 752 mmHg 83%
    02:00 +14°C° 0 mm 5 mps 752 mmHg 84%
    03:00 +14°C° 0 mm 5 mps 752 mmHg 84%
    04:00 +14°C° 0 mm 4 mps 753 mmHg 83%
    05:00 +14°C° 0 mm 4 mps 753 mmHg 81%
    06:00 +15°C° 0 mm 4 mps 753 mmHg 79%
    07:00 +17°C° 0 mm 4 mps 754 mmHg 71%
    08:00 +19°C° 0 mm 4 mps 754 mmHg 63%
    09:00 +21°C° 0 mm 4 mps 754 mmHg 55%
    10:00 +22°C° 0 mm 4 mps 754 mmHg 52%
    11:00 +23°C° 0 mm 4 mps 754 mmHg 49%
    12:00 +25°C° 0 mm 4 mps 754 mmHg 46%
    13:00 +25°C° 0 mm 4 mps 754 mmHg 46%
    14:00 +25°C° 0 mm 4 mps 754 mmHg 47%
    15:00 +25°C° 0 mm 3 mps 753 mmHg 48%
    16:00 +23°C° 0 mm 4 mps 753 mmHg 52%
    17:00 +22°C° 0 mm 4 mps 753 mmHg 56%
    18:00 +21°C° 0 mm 4 mps 753 mmHg 60%
    19:00 +19°C° 0 mm 4 mps 754 mmHg 68%
    20:00 +18°C° 0 mm 3 mps 754 mmHg 75%
    21:00 +16°C° 0 mm 3 mps 755 mmHg 82%
    22:00 +16°C° 0 mm 3 mps 755 mmHg 84%
    23:00 +14°C° 0 mm 3 mps 754 mmHg 86%

    2 May, Tuesday

    Time Temperature Precipitation Wind Pressure Humidity
    00:00 +15°C° 0 mm 2 mps 754 mmHg 87%
    01:00 +14°C° 0 mm 2 mps 754 mmHg 87%
    02:00 +13°C° 0 mm 3 mps 754 mmHg 88%
    03:00 +13°C° 0 mm 3 mps 753 mmHg 88%
    04:00 +14°C° 0 mm 3 mps 753 mmHg 86%
    05:00 +14°C° 0 mm 3 mps 754 mmHg 84%
    06:00 +16°C° 0 mm 3 mps 754 mmHg 82%
    07:00 +19°C° 0 mm 4 mps 754 mmHg 71%
    08:00 +21°C° 0 mm 4 mps 754 mmHg 59%
    09:00 +25°C° 0 mm 4 mps 754 mmHg 48%
    10:00 +26°C° 0 mm 5 mps 753 mmHg 43%
    11:00 +27°C° 0 mm 5 mps 753 mmHg 39%
    12:00 +29°C° 0 mm 6 mps 752 mmHg 34%
    13:00 +29°C° 0 mm 6 mps 752 mmHg 35%
    14:00 +28°C° 0 mm 7 mps 751 mmHg 36%
    15:00 +28°C° 0 mm 7 mps 751 mmHg 37%
    16:00 +27°C° 0 mm 7 mps 751 mmHg 40%
    17:00 +26°C° 0 mm 6 mps 751 mmHg 44%
    18:00 +23°C° 0 mm 6 mps 751 mmHg 47%
    19:00 +21°C° 0 mm 5 mps 751 mmHg 55%
    20:00 +19°C° 0 mm 5 mps 751 mmHg 63%
    21:00 +17°C° 0 mm 4 mps 752 mmHg 70%
    22:00 +17°C° 0 mm 3 mps 752 mmHg 72%
    23:00 +16°C° 0 mm 3 mps 751 mmHg 74%

    3 May, Wednesday

    Time Temperature Precipitation Wind Pressure Humidity
    00:00 +16°C° 0 mm 2 mps 751 mmHg 76%
    01:00 +16°C° 0 mm 2 mps 751 mmHg 77%
    02:00 +15°C° 0 mm 2 mps 750 mmHg 77%
    03:00 +15°C° 0 mm 2 mps 750 mmHg 78%
    04:00 +16°C° 0 mm 2 mps 750 mmHg 76%
    05:00 +17°C° 0 mm 2 mps 750 mmHg 74%
    06:00 +17°C° 0 mm 3 mps 750 mmHg 72%
    07:00 +20°C° 0 mm 3 mps 750 mmHg 61%
    08:00 +24°C° 0 mm 3 mps 750 mmHg 50%
    09:00 +27°C° 0 mm 3 mps 750 mmHg 40%
    10:00 +28°C° 0 mm 4 mps 750 mmHg 37%
    11:00 +30°C° 0 mm 5 mps 749 mmHg 34%
    12:00 +32°C° 0 mm 5 mps 749 mmHg 31%
    13:00 +32°C° 0 mm 5 mps 749 mmHg 33%
    14:00 +32°C° 0 mm 6 mps 748 mmHg 34%
    15:00 +32°C° 0 mm 6 mps 748 mmHg 35%
    16:00 +29°C° 0 mm 5 mps 748 mmHg 39%
    17:00 +28°C° 0 mm 5 mps 748 mmHg 43%
    18:00 +26°C° 0 mm 4 mps 748 mmHg 48%
    19:00 +23°C° 0 mm 4 mps 749 mmHg 56%
    20:00 +21°C° 0 mm 3 mps 749 mmHg 64%
    21:00 +18°C° 0 mm 2 mps 750 mmHg 73%
    22:00 +18°C° 0 mm 2 mps 749 mmHg 75%
    23:00 +18°C° 0 mm 2 mps 749 mmHg 77%

    4 May, Thursday

    Time Temperature Precipitation Wind Pressure Humidity
    00:00 +17°C° 0 mm 2 mps 749 mmHg 79%
    01:00 +17°C° 0 mm 2 mps 749 mmHg 78%
    02:00 +17°C° 0 mm 2 mps 749 mmHg 77%
    03:00 +17°C° 0 mm 2 mps 748 mmHg 76%
    04:00 +18°C° 0 mm 3 mps 748 mmHg 73%
    05:00 +19°C° 0 mm 3 mps 748 mmHg 70%
    06:00 +20°C° 0 mm 3 mps 748 mmHg 67%
    07:00 +24°C° 0 mm 3 mps 748 mmHg 57%
    08:00 +27°C° 0 mm 3 mps 748 mmHg 47%
    09:00 +30°C° 0 mm 3 mps 748 mmHg 37%
    10:00 +33°C° 0 mm 4 mps 748 mmHg 33%
    11:00 +34°C° 0 mm 4 mps 748 mmHg 29%
    12:00 +36°C° 0 mm 5 mps 748 mmHg 26%
    13:00 +36°C° 0 mm 5 mps 747 mmHg 26%
    14:00 +36°C° 0 mm 5 mps 747 mmHg 26%
    15:00 +36°C° 0 mm 6 mps 746 mmHg 26%
    16:00 +34°C° 0 mm 5 mps 746 mmHg 30%
    17:00 +33°C° 0 mm 5 mps 746 mmHg 34%
    18:00 +30°C° 0 mm 4 mps 746 mmHg 39%
    19:00 +28°C° 0 mm 3 mps 746 mmHg 45%
    20:00 +26°C° 0 mm 3 mps 747 mmHg 51%
    21:00 +23°C° 0 mm 2 mps 747 mmHg 58%
    22:00 +23°C° 0 mm 2 mps 747 mmHg 57%
    23:00 +23°C° 0 mm 2 mps 747 mmHg 56%
    Show more